This is the latest recevied weather packets stored in our database for station/object WZ9ZZZ-1. If no packets are shown the sender has not sent any weather packets the latest 10 day(s).
| Time | Temp. | Humidity | Pressure | Rain* | Wind** | Luminosity | Snow |
|---|---|---|---|---|---|---|---|
| 1778018566 | 26.67° C | 83% | 1011.6 hPa | 0 mm | - | 142 W/m² | - |
| 1778018264 | 26.67° C | 83% | 1011.7 hPa | 0 mm | - | 114 W/m² | - |
| 1778017961 | 26.67° C | 83% | 1011.7 hPa | 0 mm | - | 103 W/m² | - |
| 1778017659 | 26.67° C | 83% | 1011.8 hPa | 0 mm | - | 134 W/m² | - |
| 1778017356 | 26.67° C | 83% | 1011.7 hPa | 0 mm | - | 73 W/m² | - |
| 1778017053 | 26.67° C | 83% | 1011.7 hPa | 0 mm | - | 145 W/m² | - |
| 1778016750 | 26.67° C | 82% | 1011.8 hPa | 0 mm | - | 182 W/m² | - |
| 1778016446 | 27.22° C | 82% | 1011.8 hPa | 0 mm | - | 225 W/m² | - |
| 1778016144 | 27.22° C | 82% | 1012 hPa | 0 mm | - | 181 W/m² | - |
| 1778015841 | 27.22° C | 83% | 1012 hPa | 0 mm | - | 259 W/m² | - |
| 1778015538 | 27.22° C | 82% | 1012 hPa | 0 mm | - | 177 W/m² | - |
| 1778015235 | 27.22° C | 82% | 1012.1 hPa | 0 mm | - | 257 W/m² | - |
| 1778014931 | 27.22° C | 82% | 1011.9 hPa | 0 mm | - | 223 W/m² | - |
| 1778014629 | 27.22° C | 82% | 1011.8 hPa | 0 mm | - | 155 W/m² | - |
| 1778014327 | 27.22° C | 82% | 1012.3 hPa | 0 mm | - | 199 W/m² | - |
| 1778014023 | 27.22° C | 82% | 1012.2 hPa | 0 mm | - | 199 W/m² | - |
| 1778013721 | 27.22° C | 82% | 1012.6 hPa | 0 mm | - | 259 W/m² | - |
| 1778013418 | 27.22° C | 82% | 1012.4 hPa | 0 mm | - | 182 W/m² | - |
| 1778013115 | 27.22° C | 82% | 1012.3 hPa | 0 mm | - | 211 W/m² | - |
| 1778012810 | 27.22° C | 82% | 1012.6 hPa | 0 mm | - | 253 W/m² | - |
| 1778012507 | 27.22° C | 81% | 1012.6 hPa | 0 mm | - | 268 W/m² | - |
| 1778012203 | 27.22° C | 82% | 1012.8 hPa | 0 mm | - | 259 W/m² | - |
| 1778011901 | 27.78° C | 81% | 1012.8 hPa | 0 mm | - | 219 W/m² | - |
| 1778011599 | 27.78° C | 81% | 1012.8 hPa | 0 mm | - | 312 W/m² | - |
| 1778011296 | 27.22° C | 81% | 1012.9 hPa | 0 mm | - | 379 W/m² | - |
* Rain latest hour (hover to see other rain measurements)
** Current wind speed in m/s (hover to see current wind gust speed)